Overview Statistics Trail Chart Weather Telemetry Raw packets
 

This is the latest recevied weather packets stored in our database for station/object WE1C. If no packets are shown the sender has not sent any weather packets the latest 10 day(s).

<< 100 101 102 103 104 105 106 >>
Time Temp. Humidity Pressure Rain* Wind** Luminosity Snow
1787858502 25° C 73% 1045.6 hPa 0 mm - 171 W/m² -
1787858201 25° C 74% 1045.5 hPa 0 mm - 171 W/m² -
1787857897 25.56° C 73% 1045.6 hPa 0 mm - 217 W/m² -
1787857593 26.11° C 71% 1045.7 hPa 0 mm - 445 W/m² -
1787857293 25.56° C 72% 1045.6 hPa 0 mm - 591 W/m² -
1787856992 26.11° C 71% 1045.5 hPa 0 mm - 341 W/m² -
1787856686 26.67° C 69% 1045.8 hPa 0 mm - 425 W/m² -
1787856386 25.56° C 69% 1045.6 hPa 0 mm - 614 W/m² -
1787856081 26.11° C 69% 1045.6 hPa 0 mm - 499 W/m² -
1787855776 25.56° C 69% 1045.5 hPa 0 mm - 344 W/m² -
1787855471 25.56° C 71% 1045.8 hPa 0 mm - 381 W/m² -
1787855167 25.56° C 70% 1045.6 hPa 0 mm - 591 W/m² -
1787854862 26.11° C 70% 1045.6 hPa 0 mm - 464 W/m² -
1787854561 25.56° C 70% 1045.3 hPa 0 mm - 724 W/m² -
1787854255 26.67° C 70% 1045.6 hPa 0 mm - 743 W/m² -
1787853950 26.11° C 72% 1045.4 hPa 0 mm - 718 W/m² -
1787853644 25.56° C 72% 1045.8 hPa 0 mm - 792 W/m² -
1787853343 24.44° C 76% 1045.7 hPa 0 mm - 656 W/m² -
1787853033 24.44° C 77% 1045.8 hPa 0 mm - 322 W/m² -
1787852733 24.44° C 76% 1045.7 hPa 0 mm - 350 W/m² -
1787852432 23.89° C 77% 1045.8 hPa 0 mm - 274 W/m² -
1787852132 24.44° C 80% 1045.9 hPa 0 mm - 264 W/m² -
1787851828 24.44° C 78% 1045.6 hPa 0 mm - 289 W/m² -
1787851526 24.44° C 79% 1046 hPa 0 mm - 260 W/m² -
1787851221 24.44° C 79% 1046 hPa 0 mm - 305 W/m² -

* Rain latest hour (hover to see other rain measurements)
** Current wind speed in m/s (hover to see current wind gust speed)